Regional Weather Roundup
Issued by NWS Albany, NY

Home | Current Version | Previous Version | Graphics & Text | Print | Product List | Glossary Off
Versions: 1 2 3 4 5 6 7 8 9 10 11 12 13 14 15 16 17 18 19 20 21 22 23 24 25 26 27 28 29 30 31 32 33 34 35 36 37 38 39 40 41 42 43 44 45 46 47 48 49 50

000
ASUS41 KALY 261910
RWRALY

NEW YORK STATE HOURLY WEATHER ROUNDUP
NATIONAL WEATHER SERVICE ALBANY NY
300 PM EDT SUN APR 26 2015

NOTE: "FAIR" INDICATES FEW OR NO CLOUDS BELOW 12,000 FEET WITH NO
SIGNIFICANT WEATHER AND/OR NO OBSTRUCTIONS TO VISIBILITY.

NYZ032-033-038>043-046>054-057>066-NYZ062>081-262000-
EAST


CITY           SKY/WX    TMP DP  RH WIND       PRES   REMARKS
ALBANY         CLOUDY    56  29  35 NW14G22   29.67F
GLENS FALLS    CLOUDY    55  29  36 N9        29.66F
POUGHKEEPSIE   CLOUDY    59  29  31 NW8       29.65S
MONTGOMERY     CLOUDY    59  29  31 NW8       29.64F
WHITE PLAINS   PTSUNNY   57  28  33 NW9G20    29.65F
ISLIP          PTSUNNY   58  28  32 NW10G18   29.65S
NEW YORK CITY  PTSUNNY   59  27  29 CALM      29.66F
CENTRAL PARK   CLOUDY    61  26  26 N7        29.69S
$$

NYZ005>009-017-018-044>046-055-056-262000-
CENTRAL


CITY           SKY/WX    TMP DP  RH WIND       PRES   REMARKS
FULTON         CLOUDY    47  32  56 NW14      29.79R
SYRACUSE       PTSUNNY   51  31  46 NW16      29.77R
ROME           CLOUDY    51  32  48 W14       29.74S
ELMIRA         CLOUDY    51  30  44 N10       29.75S
BINGHAMTON     CLOUDY    46  29  51 W10G16    29.72S
MONTICELLO     CLOUDY    52  27  37 NW12G17   29.69F
$$

NYZ026>034-041>043-262000-
NORTH


CITY           SKY/WX    TMP DP  RH WIND       PRES   REMARKS
WATERTOWN      CLOUDY    46  35  65 W12       29.77S
FORT DRUM      NOT AVBL
MASSENA        CLOUDY    50  33  52 W9        29.74F
SARANAC LAKE   CLOUDY    44  30  57 W8        29.67F
PLATTSBURGH    CLOUDY    49  34  56 CALM      29.70F
$$

NYZ001>004-010>016-019>021-262000-
WEST


CITY           SKY/WX    TMP DP  RH WIND       PRES   REMARKS
NIAGARA FALLS  MOSUNNY   53  32  44 NW13      29.81S
BUFFALO        PTSUNNY   50  31  48 N13G21    29.81R
DUNKIRK        SUNNY     51  32  48 N8        29.83S
JAMESTOWN      MOSUNNY   48  27  43 N13G18    29.80S
WELLSVILLE     CLOUDY    46  27  47 NW8       29.77S
ROCHESTER      PTSUNNY   51  29  42 N13G20    29.80R
PENN YAN       PTSUNNY   50  31  48 NW10      29.77S
$$

             KEY
       WCI = WIND CHILL INDEX
       VSB = VISIBILITY
       HX  = HEAT INDEX
$$


USA.gov is the U.S. government's official web portal to all federal, state and local government web resources and services.